Location: Northam
(31.6525°S, 116.6655°E)
Time: 16:43:23
(UTC+08:00)

Hubble Space Telescope - Pass Details

Date: 20 May 2021
Orbit: 535 x 539 km, 28.5° (Epoch: 17 June)

Event Time Altitude Azimuth Distance (km) Brightness Sun altitude
Rises 18:44:47 0° 279° (W) 2,688 6.1 -17.5°
Reaches altitude 10° 18:47:04 10° 283° (WNW) 1,798 4.7 -18.0°
Maximum altitude 18:51:09 55° 1° (N) 650 1.2 -18.9°
Enters shadow 18:52:24 38° 57° (ENE) 828 1.3 -19.1°
